Regional Weather Roundup
Issued by NWS

Home | Current Version | Previous Version | Graphics & Text | Print | Product List | Glossary On
Versions: 1 2 3 4 5 6 7 8 9 10 11 12 13 14 15 16 17 18 19 20 21 22 23 24 25 26 27 28 29 30 31 32 33 34 35 36 37 38 39 40 41 42 43 44 45 46 47 48 49 50
000
ASUS45 KSLC 010810
RWRUT

UTAH REGIONAL WEATHER ROUNDUP
NATIONAL WEATHER SERVICE SALT LAKE CITY UT
200 AM MDT WED JUL 01 2015

UTZ001>011-023>025-010900-

NORTHERN UTAH

CITY           SKY/WX    TMP DP  RH WIND       PRES   REMARKS
BRIGHAM CITY   CLOUDY    79  50  36 S6        30.07F
HILL AFB       CLOUDY    76  57  52 SE8       30.14F
LOGAN          CLEAR     75  53  46 CALM      30.09S
OGDEN          CLOUDY    77  54  44 SE9       30.10F
PROVO AIRPORT  CLOUDY    77  54  44 NE6       30.12F
SALT LAKE CITY CLOUDY    80  55  42 CALM      30.10F
VERNAL         CLOUDY    66  52  60 W3        30.12S
WENDOVER       MOCLDY    77  54  44 W12       30.10F
HEBER CITY     CLOUDY    70  52  52 E3        30.22F
WEST JORDAN    CLEAR     75  52  43 W6        30.14F

$$

UTZ012>022-026-027-010900-

SOUTHERN/CENTRAL UTAH

CITY           SKY/WX    TMP DP  RH WIND       PRES   REMARKS
BLANDING       CLOUDY    75  41  30 N9        30.18S
BRYCE CANYON   MOCLDY    53  45  74 NW8       30.33F
CEDAR CITY     PTCLDY    70  45  40 E7        30.16R
DELTA          CLOUDY    74  56  52 N10       30.11R
HANKSVILLE     MOCLDY    79  43  27 CALM      30.04S
MILFORD        PTCLDY    78  46  32 N10       30.11F
MOAB/CYNLANDS  CLEAR     77  41  27 CALM      29.99S
PRICE          CLOUDY    80  44  27 NW15G24   30.16F
ST GEORGE      CLOUDY    90  45  20 CALM      29.87F
KANAB          CLEAR     73  46  38 N7        30.11F

$$

REGIONAL REPORTS     COLORADO/ARIZONA

CITY           SKY/WX    TMP DP  RH WIND       PRES   REMARKS
CRAIG, CO      CLOUDY    56  48  74 CALM      30.21S
GRAND JUNCTION PTCLDY    72  49  44 CALM      30.05R
RIFLE          PTCLDY    67  43  41 S5        30.14R
MONTROSE       PTCLDY    70  46  42 SE6       30.16S
CORTEZ         CLEAR     64  48  56 NE5       30.12S
PAGE, AZ       PTCLDY    86  43  22 W6        29.98S
GRAND CANYON   PTCLDY    59  55  87 CALM      30.22S
KINGMAN        LGT RAIN  88  55  32 SW12      29.97R
FLAGSTAFF      PTCLDY    65  54  67 CALM      30.24F

$$

REGIONAL REPORTS    NEVADA/IDAHO/WYOMING

CITY           SKY/WX    TMP DP  RH WIND       PRES   REMARKS
LAS VEGAS, NV  MOCLDY   100  55  22 S8        29.74S HX  98
ELY            CLOUDY    62  54  74 S3        30.30R
ELKO           MOCLDY    71  55  56 E6        30.18F
POCATELLO, ID  CLEAR     71  62  73 SE5       30.08S
BURLEY         CLOUDY    76  53  44 S21G28    30.02F
EVANSTON, WY   MOCLDY    70  45  40 SW12      30.32R
ROCK SPRINGS   MOCLDY    62  53  72 N5        30.25S
KEMMERER       MOCLDY    64  46  52 CALM      30.31S

$$



USA.gov is the U.S. government's official web portal to all federal, state and local government web resources and services.